Latest Weather Observations for Argyle

IDW60801

Issued at 5:35 pm WST Friday 25 April 2014 (issued every 30 minutes, with the page automatically refreshed every 10 minutes)

About weather observations | Map of weather stations | Latest weather observations for WA | Other Formats
Station Details ID: 002064 Name: ARGYLE AERODROME Lat: -16.64 Lon: 128.45 Height: 164.0 m
Data from the previous 72 hours. | See also: Recent months at Argyle
Date/Time
WST
Temp
°C
App
Temp
°C
Dew
Point
Rel
Hum
%
Delta-T
°C
Wind Press
QNH
hPa
Press
MSL
hPa
Rain
since 9 am
mm
Dir
 
Spd
km/h
Gust
km/h
Spd
kts
Gust
kts
25/05:00pm 34.0 34.2 14.1 30 12.3 S 6 7 3 4 1008.8 - 0.0
25/04:30pm 34.5 33.9 13.4 28 12.9 SE 9 11 5 6 1008.4 - 0.0
25/04:00pm 34.7 34.8 12.8 26 13.3 SW 4 11 2 6 1008.1 - 0.0
25/03:30pm 34.8 34.5 13.4 27 13.1 ESE 7 11 4 6 1008.0 - 0.0
25/03:00pm 35.1 34.2 12.7 26 13.6 SE 9 15 5 8 1007.9 1006.8 0.0
25/02:30pm 34.9 33.5 12.1 25 13.7 ENE 11 17 6 9 1007.9 - 0.0
25/02:00pm 35.0 33.5 11.8 24 13.9 SE 11 17 6 9 1008.2 - 0.0
25/01:30pm 35.5 34.5 12.4 24 14.0 SE 9 19 5 10 1008.5 - 0.0
25/01:00pm 34.8 33.3 12.0 25 13.7 ESE 11 24 6 13 1009.2 - 0.0
25/12:00pm 33.8 32.6 11.6 26 13.2 SSE 9 20 5 11 1010.1 1009.0 0.0
25/11:30am 34.0 32.2 12.1 26 13.1 SE 13 20 7 11 1010.6 - 0.0
25/11:00am 33.5 32.5 12.3 27 12.7 S 9 19 5 10 1011.1 - 0.0
25/10:30am 32.9 31.6 11.3 26 12.7 E 9 19 5 10 1011.7 - 0.0
25/10:00am 32.1 30.4 10.0 25 12.7 E 9 13 5 7 1012.1 - 0.0
25/09:00am 30.8 29.3 9.2 26 12.2 E 7 13 4 7 1012.7 1011.6 0.0
25/08:30am 30.3 28.5 7.2 23 12.6 ESE 6 11 3 6 1012.8 - 0.0
25/08:00am 29.5 27.6 6.6 23 12.3 E 6 7 3 4 1012.7 - 0.0
25/07:30am 28.3 26.9 7.1 26 11.4 NE 4 7 2 4 1012.5 - 0.0
25/07:00am 26.3 24.6 7.4 30 10.1 N 6 7 3 4 1012.4 - 0.0
25/06:30am 24.3 22.8 8.6 36 8.5 NW 6 7 3 4 1012.0 - 0.0
25/06:00am 22.5 21.1 9.7 44 7.0 WNW 7 9 4 5 1011.7 1010.7 0.0
25/05:30am 22.8 21.4 8.9 41 7.5 WNW 6 7 3 4 1011.4 - 0.0
25/05:00am 22.4 21.2 9.5 43 7.0 NNW 6 7 3 4 1011.0 - 0.0
25/04:30am 22.5 21.1 9.4 43 7.1 NNW 7 11 4 6 1010.5 - 0.0
25/04:00am 22.2 20.9 10.0 46 6.7 WNW 7 9 4 5 1010.4 - 0.0
25/03:30am 22.9 22.5 9.8 43 7.2 N 2 6 1 3 1010.0 - 0.0
25/03:00am 22.8 22.3 10.6 46 6.8 NNW 4 6 2 3 1009.8 1008.7 0.0
25/02:00am 23.6 22.4 10.3 43 7.4 ENE 7 9 4 5 1009.6 - 0.0
25/01:30am 24.2 23.5 9.9 40 7.9 NE 4 6 2 3 1009.8 - 0.0
25/01:00am 24.7 23.3 8.9 36 8.6 N 6 7 3 4 1009.9 - 0.0
25/12:30am 24.8 23.0 8.0 34 9.0 N 7 11 4 6 1010.0 - 0.0
25/12:00am 24.2 23.3 9.4 39 8.1 NW 4 6 2 3 1010.4 1009.3 0.0
 
Date/Time
WST
Temp
°C
App
Temp
°C
Dew
Point
Rel
Hum
%
Delta-T
°C
Wind Press
QNH
hPa
Press
MSL
hPa
Rain
since 9 am
mm
Dir
 
Spd
km/h
Gust
km/h
Spd
kts
Gust
kts
24/11:30pm 24.5 23.5 10.3 40 7.9 E 6 9 3 5 1010.6 - 0.0
24/11:00pm 24.8 22.6 9.3 37 8.5 E 11 13 6 7 1010.7 - 0.0
24/10:30pm 25.0 23.2 9.6 37 8.5 E 9 11 5 6 1010.9 - 0.0
24/10:00pm 25.9 24.3 8.7 33 9.4 E 7 11 4 6 1011.1 - 0.0
24/09:30pm 25.9 24.5 9.5 35 9.1 E 7 9 4 5 1011.2 - 0.0
24/09:00pm 25.7 25.7 11.1 40 8.3 SE 2 6 1 3 1011.3 1010.2 0.0
24/08:30pm 26.7 25.4 9.9 34 9.4 E 7 9 4 5 1011.1 - 0.0
24/08:00pm 27.6 25.6 8.7 30 10.4 ESE 9 11 5 6 1010.9 - 0.0
24/07:30pm 28.5 26.3 7.8 27 11.3 SE 9 11 5 6 1010.7 - 0.0
24/07:00pm 29.7 26.8 6.4 23 12.5 SE 11 15 6 8 1010.3 - 0.0
24/06:30pm 30.3 27.3 6.0 21 13.0 SSE 11 15 6 8 1010.0 - 0.0
24/06:00pm 30.6 28.2 7.2 23 12.8 SSE 9 15 5 8 1009.5 1008.4 0.0
24/05:30pm 31.2 28.2 6.1 20 13.5 SSE 11 15 6 8 1009.2 - 0.0
24/05:00pm 32.4 29.5 6.3 19 14.2 SSE 11 17 6 9 1008.9 - 0.0
24/04:30pm 33.6 30.9 7.3 19 14.6 SSE 11 19 6 10 1008.6 - 0.0
24/04:00pm 34.6 30.5 4.5 15 16.1 SSE 15 24 8 13 1008.4 - 0.0
24/03:30pm 34.8 31.0 3.8 14 16.4 ESE 13 22 7 12 1008.3 - 0.0
24/03:00pm 35.4 31.6 3.7 14 16.8 SE 13 20 7 11 1008.3 1007.2 0.0
24/02:30pm 35.3 31.4 3.5 13 16.8 SE 13 22 7 12 1008.4 - 0.0
24/02:00pm 35.2 30.1 2.8 13 16.9 ESE 19 30 10 16 1008.5 - 0.0
24/01:30pm 35.6 30.6 3.4 13 17.0 E 19 30 10 16 1008.7 - 0.0
24/01:00pm 35.2 30.6 3.6 14 16.7 SE 17 26 9 14 1009.2 - 0.0
24/12:30pm 35.0 30.1 3.9 14 16.5 ESE 19 30 10 16 1009.6 - 0.0
24/12:00pm 34.8 30.0 4.5 15 16.2 ESE 19 30 10 16 1010.0 1008.9 0.0
24/11:30am 33.9 28.7 5.3 17 15.4 ESE 22 32 12 17 1010.8 - 0.0
24/11:00am 33.7 29.1 6.6 18 14.9 E 20 33 11 18 1011.4 - 0.0
24/10:00am 33.0 29.5 8.8 22 13.7 ESE 17 28 9 15 1012.2 - 0.0
24/09:30am 32.1 29.1 9.2 24 13.0 ESE 15 22 8 12 1012.7 - 0.0
24/09:00am 30.9 29.2 9.9 27 12.0 SE 9 17 5 9 1012.7 1011.6 0.0
24/08:30am 29.9 28.8 10.6 30 11.1 SE 7 11 4 6 1012.6 - 0.0
24/08:00am 29.2 29.3 10.0 30 10.9 CALM 0 0 0 0 1012.5 - 0.0
24/07:30am 27.9 27.8 10.7 34 9.8 ESE 2 7 1 4 1012.2 - 0.0
24/07:00am 26.3 26.6 10.8 37 8.8 CALM 0 0 0 0 1012.2 - 0.0
24/06:30am 24.0 24.4 11.3 45 7.2 CALM 0 0 0 0 1012.0 - 0.0
24/06:00am 22.2 21.3 11.5 50 6.0 WNW 7 9 4 5 1011.7 1010.7 0.0
24/05:30am 22.1 21.2 11.4 50 6.0 WNW 7 9 4 5 1011.3 - 0.0
24/05:00am 22.0 21.3 11.5 51 5.9 NW 6 7 3 4 1011.0 - 0.0
24/04:30am 23.4 22.4 10.4 43 7.2 N 6 7 3 4 1010.7 - 0.0
24/04:00am 24.0 22.7 9.9 41 7.8 NNW 7 9 4 5 1010.5 - 0.0
24/03:30am 23.6 22.7 10.5 43 7.3 NW 6 7 3 4 1010.4 - 0.0
24/03:00am 23.9 23.2 10.0 41 7.7 WNW 4 7 2 4 1010.3 1009.2 0.0
24/02:30am 23.9 23.7 10.4 42 7.5 N 2 6 1 3 1010.3 - 0.0
24/02:00am 23.7 22.6 10.6 43 7.3 N 7 9 4 5 1010.3 - 0.0
24/01:30am 24.0 23.1 10.8 43 7.4 W 6 7 3 4 1010.4 - 0.0
24/01:00am 25.4 25.1 10.2 38 8.5 N 2 7 1 4 1010.7 - 0.0
24/12:30am 24.8 24.9 10.1 39 8.2 CALM 0 0 0 0 1011.0 - 0.0
24/12:00am 24.7 25.1 11.3 43 7.6 CALM 0 0 0 0 1011.4 1010.3 0.0
 
Date/Time
WST
Temp
°C
App
Temp
°C
Dew
Point
Rel
Hum
%
Delta-T
°C
Wind Press
QNH
hPa
Press
MSL
hPa
Rain
since 9 am
mm
Dir
 
Spd
km/h
Gust
km/h
Spd
kts
Gust
kts
23/11:30pm 24.7 25.1 12.4 46 7.1 ENE 2 6 1 3 1011.6 - 0.0
23/11:00pm 25.6 24.5 10.7 39 8.4 E 7 9 4 5 1011.7 - 0.0
23/10:30pm 25.8 24.8 11.0 39 8.4 E 7 9 4 5 1011.8 - 0.0
23/10:00pm 26.3 24.8 10.5 37 8.9 E 9 17 5 9 1011.9 - 0.0
23/09:30pm 26.8 25.1 9.8 34 9.5 ESE 9 13 5 7 1011.7 - 0.0
23/09:00pm 27.2 25.1 9.9 33 9.7 ESE 11 13 6 7 1011.7 1010.7 0.0
23/08:30pm 27.9 26.1 9.5 31 10.3 ESE 9 15 5 8 1011.7 - 0.0
23/08:00pm 28.0 26.2 9.6 31 10.3 ESE 9 11 5 6 1011.6 - 0.0
23/07:30pm 27.6 26.5 10.8 35 9.6 ESE 7 9 4 5 1011.2 - 0.0
23/07:00pm 28.9 27.1 9.5 29 10.9 SE 9 11 5 6 1010.7 - 0.0
23/06:30pm 29.6 27.8 9.6 28 11.3 SSE 9 11 5 6 1010.2 - 0.0
23/06:00pm 30.4 28.2 9.3 27 11.9 SSE 11 15 6 8 1009.9 1008.8 0.0
23/05:00pm 32.1 30.3 9.3 24 13.0 SSE 9 13 5 7 1009.0 - 0.0
23/04:30pm 33.3 30.2 7.1 19 14.5 SE 13 19 7 10 1008.7 - 0.0
23/04:00pm 34.3 30.4 5.5 16 15.6 SSE 15 20 8 11 1008.5 - 0.0
23/03:30pm 34.9 31.2 6.1 17 15.8 SSE 15 20 8 11 1008.5 - 0.0
23/03:00pm 35.2 32.7 6.4 17 15.9 SE 9 15 5 8 1008.5 1007.4 0.0
23/02:00pm 34.7 30.9 5.7 16 15.8 ESE 15 26 8 14 1009.0 - 0.0
23/01:00pm 35.0 31.1 7.0 17 15.6 ESE 17 28 9 15 1009.8 - 0.0
23/12:30pm 34.6 30.9 6.5 17 15.5 E 15 22 8 12 1010.3 - 0.0
23/12:00pm 34.8 30.1 5.9 16 15.8 ESE 20 24 11 13 1010.7 1009.6 0.0
23/11:30am 34.1 29.3 4.7 16 15.7 ESE 19 28 10 15 1011.3 - 0.0
23/11:00am 33.8 29.4 4.8 16 15.5 SSE 17 24 9 13 1011.6 - 0.0
23/10:00am 32.8 28.2 5.7 18 14.6 ESE 19 26 10 14 1012.9 - 0.0
23/09:30am 32.3 28.6 6.3 19 14.1 SE 15 20 8 11 1013.3 - 0.0
23/09:00am 31.4 28.7 7.4 22 13.2 SE 11 19 6 10 1013.4 1012.3 0.0
23/08:30am 29.8 27.8 8.6 26 11.8 S 9 15 5 8 1013.5 - 0.0
23/08:00am 28.9 27.5 9.0 28 11.1 S 6 7 3 4 1013.5 - 0.0
23/07:30am 27.0 26.5 10.8 36 9.2 NNW 4 7 2 4 1013.3 - 0.0
23/07:00am 25.1 24.3 9.5 37 8.6 WNW 4 7 2 4 1013.2 - 0.0
23/06:30am 22.7 22.1 11.7 49 6.2 SW 6 7 3 4 1013.0 - 0.0
23/06:00am 22.0 20.2 10.8 49 6.2 S 11 13 6 7 1012.7 1011.6 0.0
23/05:30am 21.7 20.2 10.4 48 6.2 SE 9 11 5 6 1012.6 - 0.0
23/05:00am 22.6 22.0 10.3 45 6.8 ESE 4 7 2 4 1012.2 - 0.0
23/04:30am 22.8 23.5 12.3 51 6.0 CALM 0 0 0 0 1012.0 - 0.0
23/04:00am 22.7 23.4 12.2 51 6.0 CALM 0 0 0 0 1011.7 - 0.0
23/03:30am 23.0 22.1 10.8 46 6.8 SSW 6 9 3 5 1011.7 - 0.0
23/03:00am 23.4 22.3 11.8 48 6.6 SW 9 11 5 6 1011.6 1010.6 0.0
23/02:30am 23.9 23.1 11.1 44 7.2 WSW 6 7 3 4 1011.7 - 0.0
23/02:00am 23.5 22.6 11.3 46 6.9 W 7 7 4 4 1011.9 - 0.0
23/01:30am 23.6 23.0 11.8 47 6.7 WNW 6 7 3 4 1012.1 - 0.0
23/01:00am 23.6 22.8 11.8 47 6.7 NW 7 9 4 5 1012.5 - 0.0
23/12:30am 23.1 22.0 11.8 49 6.4 NNW 9 11 5 6 1012.8 - 0.0
23/12:00am 24.8 24.5 11.4 43 7.6 N 4 6 2 3 1012.9 1011.8 0.0
 
Date/Time
WST
Temp
°C
App
Temp
°C
Dew
Point
Rel
Hum
%
Delta-T
°C
Wind Press
QNH
hPa
Press
MSL
hPa
Rain
since 9 am
mm
Dir
 
Spd
km/h
Gust
km/h
Spd
kts
Gust
kts
22/11:30pm 24.9 24.8 12.2 45 7.3 W 4 7 2 4 1012.9 - 0.0
22/11:00pm 25.2 24.8 12.4 45 7.4 WSW 6 7 3 4 1013.0 - 0.0
22/10:30pm 24.8 25.6 12.6 46 7.1 CALM 0 0 0 0 1013.1 - 0.0
22/10:00pm 25.6 25.5 13.2 46 7.3 E 6 7 3 4 1013.2 - 0.0
22/09:30pm 26.0 26.6 13.1 44 7.6 E 2 6 1 3 1013.1 - 0.0
22/09:00pm 26.6 25.7 11.2 38 8.8 E 7 9 4 5 1013.2 1012.1 0.0
22/08:30pm 26.7 27.1 12.5 41 8.3 ENE 2 6 1 3 1013.1 - 0.0
22/08:00pm 27.2 26.7 12.1 39 8.8 SSE 6 7 3 4 1012.7 - 0.0
22/07:00pm 28.9 27.8 10.8 32 10.4 SSE 7 9 4 5 1012.1 - 0.0
22/06:30pm 28.9 28.0 11.5 34 10.1 SE 7 9 4 5 1011.7 - 0.0
22/06:00pm 29.2 28.3 11.5 33 10.3 - 7 9 4 5 1011.3 1010.2 0.0

Other Formats:

Comma delimited format used in spreadsheet applications
http://www.bom.gov.au/fwo/IDW60801/IDW60801.94217.axf

JavaScript Object Notation format (JSON) in row-major order
http://www.bom.gov.au/fwo/IDW60801/IDW60801.94217.json